,,,PA_Meas_PMT16A,,PR_Meas_QMR101_102,,RH_Meas_QMH101,,SR_Meas_QMS101,,TA_Meas_QMH101,,GenWind,,GenWind,
date,time,status,PA,status,PR,status,RH,status,SR,status,TA,status,DirAvg,status,SpdAvg,
2008-11-07, 00:00:04,VALID,1002.85,VALID,0,VALID,84.9857,VALID,0,VALID,26.642,VALID,110,VALID,0.94375,
2008-11-07, 00:01:04,VALID,1002.8,VALID,0,VALID,84.4899,VALID,0.100563,VALID,26.683,VALID,105,VALID,1.19062,
2008-11-07, 00:02:04,VALID,1002.82,VALID,0,VALID,84.9171,VALID,0.100563,VALID,26.7024,VALID,143,VALID,1.31992,
2008-11-07, 00:03:04,VALID,1002.79,VALID,0,VALID,85.1002,VALID,0,VALID,26.683,VALID,151,VALID,1.32656,
2008-11-07, 00:04:04,VALID,1002.79,VALID,0,VALID,85.5121,VALID,0,VALID,26.603,VALID,146,VALID,1.14844,
2008-11-07, 00:05:04,VALID,1002.78,VALID,0,VALID,85.4892,VALID,0.100563,VALID,26.5661,VALID,138,VALID,0.689453,
2008-11-07, 00:06:04,VALID,1002.8,VALID,0,VALID,85.2985,VALID,0,VALID,26.5076,VALID,132,VALID,1.15859,
2008-11-07, 00:07:04,VALID,1002.85,VALID,0,VALID,85.9012,VALID,0.100563,VALID,26.4472,VALID,112,VALID,1.77656,
2008-11-07, 00:08:04,VALID,1002.8,VALID,0,VALID,85.9317,VALID,0,VALID,26.3518,VALID,142,VALID,1.31562,
2008-11-07, 00:09:04,VALID,1002.79,VALID,0,VALID,85.6571,VALID,0,VALID,26.2544,VALID,156,VALID,1.35977,
2008-11-07, 00:10:04,VALID,1002.73,VALID,0,VALID,86.3894,VALID,0,VALID,26.1765,VALID,142,VALID,0.382422,
2008-11-07, 00:11:04,VALID,1002.69,VALID,0,VALID,85.5655,VALID,0,VALID,26.118,VALID,64,VALID,0.909375,
2008-11-07, 00:12:04,VALID,1002.69,VALID,0,VALID,86.1529,VALID,0,VALID,26.0966,VALID,19,VALID,0.626562,
2008-11-07, 00:13:04,VALID,1002.63,VALID,0,VALID,85.9165,VALID,0,VALID,26.0596,VALID,14,VALID,0.935938,
2008-11-07, 00:14:04,VALID,1002.63,VALID,0,VALID,87.1523,VALID,0,VALID,26.0401,VALID,14,VALID,0.517187,
2008-11-07, 00:15:04,VALID,1002.61,VALID,0,VALID,87.2973,VALID,0,VALID,26.0012,VALID,3,VALID,0.244141,
2008-11-07, 00:16:04,VALID,1002.61,VALID,0,VALID,84.6958,VALID,0,VALID,25.8843,VALID,34,VALID,1.98633,
2008-11-07, 00:17:04,VALID,1002.6,VALID,0,VALID,84.0931,VALID,0,VALID,25.9622,VALID,34,VALID,1.25508,
2008-11-07, 00:18:04,VALID,1002.57,VALID,0,VALID,84.7492,VALID,0,VALID,26.0012,VALID,18,VALID,0.621484,
2008-11-07, 00:19:04,VALID,1002.57,VALID,0,VALID,84.6577,VALID,0,VALID,26.0421,VALID,20,VALID,0.880859,
2008-11-07, 00:20:04,VALID,1002.54,VALID,0,VALID,84.589,VALID,0,VALID,25.9817,VALID,33,VALID,0.708594,
2008-11-07, 00:21:04,VALID,1002.53,VALID,0,VALID,85.3367,VALID,0,VALID,25.9817,VALID,8,VALID,0.405859,
2008-11-07, 00:22:04,VALID,1002.51,VALID,0,VALID,85.7639,VALID,0,VALID,25.9427,VALID,8,VALID,0.198437,
2008-11-07, 00:23:04,VALID,1002.51,VALID,0,VALID,85.6494,VALID,0,VALID,25.9038,VALID,8,VALID,0.573047,
2008-11-07, 00:24:04,VALID,1002.49,VALID,0,VALID,85.1612,VALID,0,VALID,25.9057,VALID,16,VALID,0.775391,
2008-11-07, 00:25:04,VALID,1002.48,VALID,0,VALID,85.5274,VALID,0,VALID,25.9447,VALID,32,VALID,0.300781,
2008-11-07, 00:26:05,VALID,1002.51,VALID,0,VALID,85.4816,VALID,0,VALID,25.9427,VALID,46,VALID,0.721094,
2008-11-07, 00:27:05,VALID,1002.47,VALID,0,VALID,84.8713,VALID,0,VALID,26.0031,VALID,13,VALID,1.38125,
2008-11-07, 00:28:05,VALID,1002.49,VALID,0,VALID,84.4746,VALID,0,VALID,26.0012,VALID,63,VALID,0.975391,
2008-11-07, 00:29:05,VALID,1002.48,VALID,0,VALID,84.383,VALID,0,VALID,26.0616,VALID,14,VALID,0.601172,
2008-11-07, 00:30:05,VALID,1002.49,VALID,0,VALID,84.1313,VALID,0,VALID,26.081,VALID,43,VALID,0.981641,
2008-11-07, 00:31:05,VALID,1002.51,VALID,0,VALID,84.3907,VALID,0,VALID,26.0596,VALID,30,VALID,0.777734,
2008-11-07, 00:32:05,VALID,1002.49,VALID,0,VALID,84.1008,VALID,0,VALID,26.081,VALID,16,VALID,2.04141,
2008-11-07, 00:33:05,VALID,1002.41,VALID,0,VALID,84.1771,VALID,0,VALID,26.0616,VALID,23,VALID,1.25234,
2008-11-07, 00:34:05,VALID,1002.38,VALID,0,VALID,85.2451,VALID,0,VALID,26.0012,VALID,2,VALID,0.725,
2008-11-07, 00:35:05,VALID,1002.34,VALID,0,VALID,85.596,VALID,0,VALID,25.9642,VALID,38,VALID,1.10273,
2008-11-07, 00:36:05,VALID,1002.4,VALID,0,VALID,85.7562,VALID,0,VALID,25.9057,VALID,23,VALID,1.29219,
2008-11-07, 00:37:05,VALID,1002.45,VALID,0,VALID,86.542,VALID,0,VALID,25.8064,VALID,86,VALID,0.808203,
2008-11-07, 00:38:05,VALID,1002.47,VALID,0.5,VALID,87.015,VALID,0,VALID,25.7285,VALID,35,VALID,0.887109,
2008-11-07, 00:39:05,VALID,1002.57,VALID,0,VALID,87.8923,VALID,0,VALID,25.6506,VALID,108,VALID,0.594531,
2008-11-07, 00:40:05,VALID,1002.58,VALID,0,VALID,88.1746,VALID,0,VALID,25.5746,VALID,118,VALID,1.01523,
2008-11-07, 00:41:05,VALID,1002.61,VALID,0,VALID,88.6857,VALID,0,VALID,25.4967,VALID,95,VALID,1.14219,
2008-11-07, 00:42:05,VALID,1002.57,VALID,0.5,VALID,89.4944,VALID,0,VALID,25.3604,VALID,79,VALID,0.971875,
2008-11-07, 00:43:05,VALID,1002.54,VALID,0.5,VALID,90.3717,VALID,0,VALID,25.2825,VALID,91,VALID,1.01016,
2008-11-07, 00:44:05,VALID,1002.52,VALID,0.5,VALID,91.1193,VALID,0,VALID,25.1656,VALID,30,VALID,0.588672,
2008-11-07, 00:45:05,VALID,1002.53,VALID,0,VALID,91.7449,VALID,0,VALID,25.1091,VALID,17,VALID,0.403125,
2008-11-07, 00:46:05,VALID,1002.53,VALID,0,VALID,92.1035,VALID,0,VALID,25.0098,VALID,37,VALID,0.322266,
2008-11-07, 00:47:05,VALID,1002.51,VALID,0.5,VALID,92.462,VALID,0,VALID,24.9709,VALID,36,VALID,0.166016,
2008-11-07, 00:48:05,VALID,1002.51,VALID,0,VALID,92.7519,VALID,0,VALID,24.9319,VALID,11,VALID,0.665625,
2008-11-07, 00:49:05,VALID,1002.53,VALID,0,VALID,93.0418,VALID,0,VALID,24.8716,VALID,6,VALID,0.336719,
2008-11-07, 00:50:05,VALID,1002.54,VALID,0,VALID,93.2554,VALID,0,VALID,24.893,VALID,6,VALID,0.335547,
2008-11-07, 00:51:05,VALID,1002.6,VALID,0,VALID,93.3851,VALID,0,VALID,24.854,VALID,10,VALID,0.452734,
2008-11-07, 00:52:05,VALID,1002.63,VALID,0.5,VALID,93.5301,VALID,0,VALID,24.854,VALID,28,VALID,0.964453,
2008-11-07, 00:53:05,VALID,1002.6,VALID,1,VALID,93.6903,VALID,0,VALID,24.8346,VALID,18,VALID,0.0359375,
2008-11-07, 00:54:05,VALID,1002.58,VALID,1,VALID,93.8352,VALID,0,VALID,24.8132,VALID,72,VALID,1.06719,
2008-11-07, 00:55:05,VALID,1002.43,VALID,1,VALID,93.9573,VALID,0,VALID,24.7743,VALID,113,VALID,0.547656,
2008-11-07, 00:56:05,VALID,1002.3,VALID,0.5,VALID,94.1022,VALID,0,VALID,24.7353,VALID,196,VALID,1.05078,
2008-11-07, 00:57:05,VALID,1002.32,VALID,0.5,VALID,94.2624,VALID,0,VALID,24.7353,VALID,189,VALID,0.984766,
2008-11-07, 00:58:05,VALID,1002.36,VALID,0,VALID,94.415,VALID,0.100563,VALID,24.6945,VALID,145,VALID,0.671094,
2008-11-07, 00:59:05,VALID,1002.34,VALID,0,VALID,94.5218,VALID,0,VALID,24.7159,VALID,92,VALID,1.02305,
2008-11-07, 01:00:05,VALID,1002.34,VALID,0,VALID,94.5905,VALID,0,VALID,24.675,VALID,88,VALID,0.750781,
2008-11-07, 01:01:05,VALID,1002.37,VALID,0,VALID,94.6439,VALID,0,VALID,24.6769,VALID,95,VALID,1.06016,
2008-11-07, 01:02:05,VALID,1002.32,VALID,0,VALID,94.7202,VALID,0,VALID,24.6361,VALID,100,VALID,0.863672,
2008-11-07, 01:03:05,VALID,1002.28,VALID,0,VALID,94.7812,VALID,0,VALID,24.6166,VALID,102,VALID,0.162891,
2008-11-07, 01:04:05,VALID,1002.24,VALID,0,VALID,94.8499,VALID,0,VALID,24.6361,VALID,12,VALID,0.596094,
2008-11-07, 01:05:05,VALID,1002.23,VALID,0,VALID,94.9033,VALID,0,VALID,24.6398,VALID,347,VALID,0.665625,
2008-11-07, 01:06:05,VALID,1002.32,VALID,0,VALID,94.9567,VALID,0,VALID,24.6398,VALID,28,VALID,0.646875,
2008-11-07, 01:07:05,VALID,1002.4,VALID,0,VALID,94.9796,VALID,0,VALID,24.6398,VALID,98,VALID,1.18477,
2008-11-07, 01:08:05,VALID,1002.38,VALID,0,VALID,94.9643,VALID,0,VALID,24.6009,VALID,71,VALID,0.958594,
2008-11-07, 01:09:05,VALID,1002.29,VALID,0,VALID,94.9796,VALID,0,VALID,24.5796,VALID,11,VALID,0.775391,
2008-11-07, 01:10:05,VALID,1002.28,VALID,0,VALID,95.033,VALID,0,VALID,24.5601,VALID,24,VALID,0.960156,
2008-11-07, 01:11:05,VALID,1002.32,VALID,0,VALID,95.0177,VALID,0,VALID,24.5814,VALID,27,VALID,1.57773,
2008-11-07, 01:12:05,VALID,1002.24,VALID,0,VALID,95.0864,VALID,0,VALID,24.5796,VALID,35,VALID,1.54297,
2008-11-07, 01:13:05,VALID,1002.2,VALID,0,VALID,95.1169,VALID,0,VALID,24.5601,VALID,29,VALID,0.862891,
2008-11-07, 01:14:05,VALID,1002.12,VALID,0,VALID,95.0177,VALID,0,VALID,24.5406,VALID,8,VALID,1.33906,
2008-11-07, 01:15:05,VALID,1002.1,VALID,0,VALID,95.1321,VALID,0,VALID,24.5814,VALID,357,VALID,0.807813,
2008-11-07, 01:16:05,VALID,1002.07,VALID,0,VALID,95.1474,VALID,0,VALID,24.6009,VALID,4,VALID,0.676172,
2008-11-07, 01:17:05,VALID,1002.01,VALID,0,VALID,95.1245,VALID,0,VALID,24.5601,VALID,22,VALID,0.438672,
2008-11-07, 01:18:05,VALID,1001.96,VALID,0,VALID,94.8804,VALID,0,VALID,24.4822,VALID,19,VALID,1.07187,
2008-11-07, 01:19:05,VALID,1001.93,VALID,0,VALID,94.8422,VALID,0,VALID,24.4451,VALID,4,VALID,1.15547,
2008-11-07, 01:20:05,VALID,1001.91,VALID,0,VALID,94.7354,VALID,0,VALID,24.3673,VALID,29,VALID,0.973828,
2008-11-07, 01:21:05,VALID,1001.88,VALID,0,VALID,94.6668,VALID,0,VALID,24.3265,VALID,19,VALID,0.967578,
2008-11-07, 01:22:05,VALID,1001.86,VALID,0,VALID,94.5218,VALID,0,VALID,24.2875,VALID,9,VALID,0.966406,
2008-11-07, 01:23:05,VALID,1001.78,VALID,0,VALID,94.2319,VALID,0,VALID,24.2681,VALID,15,VALID,1.33672,
2008-11-07, 01:24:05,VALID,1001.76,VALID,0,VALID,94.1633,VALID,0,VALID,24.3265,VALID,43,VALID,0.498437,
2008-11-07, 01:25:05,VALID,1001.71,VALID,0,VALID,94.0565,VALID,0,VALID,24.3283,VALID,25,VALID,0.687109,
2008-11-07, 01:26:05,VALID,1001.69,VALID,0,VALID,94.0488,VALID,0,VALID,24.307,VALID,23,VALID,0.545313,
2008-11-07, 01:27:05,VALID,1001.66,VALID,0,VALID,94.1633,VALID,0,VALID,24.307,VALID,28,VALID,0.0769531,
2008-11-07, 01:28:05,VALID,1001.61,VALID,0,VALID,94.1938,VALID,0,VALID,24.2681,VALID,90,VALID,0.269922,
2008-11-07, 01:29:05,VALID,1001.59,VALID,0,VALID,94.2624,VALID,0,VALID,24.2681,VALID,88,VALID,0.475391,
2008-11-07, 01:30:05,VALID,1001.62,VALID,0,VALID,94.2853,VALID,0,VALID,24.2699,VALID,87,VALID,0.460547,
2008-11-07, 01:31:05,VALID,1001.63,VALID,0,VALID,94.3158,VALID,0,VALID,24.2291,VALID,84,VALID,0.79375,
2008-11-07, 01:32:05,VALID,1001.61,VALID,0,VALID,94.3616,VALID,0,VALID,24.231,VALID,85,VALID,0.573438,
2008-11-07, 01:33:05,VALID,1001.56,VALID,0,VALID,94.3692,VALID,0,VALID,24.1707,VALID,84,VALID,0.470703,
2008-11-07, 01:34:05,VALID,1001.56,VALID,0,VALID,94.4379,VALID,0,VALID,24.192,VALID,66,VALID,0.701563,
2008-11-07, 01:35:05,VALID,1001.54,VALID,0,VALID,94.4989,VALID,0,VALID,24.1707,VALID,68,VALID,0.319531,
2008-11-07, 01:36:05,VALID,1001.57,VALID,0,VALID,94.5447,VALID,0,VALID,24.1707,VALID,81,VALID,0.719141,
2008-11-07, 01:37:05,VALID,1001.57,VALID,0,VALID,94.56,VALID,0,VALID,24.1513,VALID,85,VALID,0.553125,
2008-11-07, 01:38:05,VALID,1001.53,VALID,0,VALID,94.5981,VALID,0,VALID,24.1513,VALID,83,VALID,0.326953,
2008-11-07, 01:39:05,VALID,1001.52,VALID,0,VALID,94.6057,VALID,0,VALID,24.1336,VALID,81,VALID,0.0699219,
2008-11-07, 01:40:05,VALID,1001.56,VALID,0,VALID,94.6439,VALID,0,VALID,24.1123,VALID,76,VALID,0.287109,
2008-11-07, 01:41:05,VALID,1001.59,VALID,0,VALID,94.7125,VALID,0,VALID,24.1142,VALID,76,VALID,0.222656,
2008-11-07, 01:42:05,VALID,1001.62,VALID,0,VALID,94.7812,VALID,0,VALID,24.0947,VALID,51,VALID,0.634766,
2008-11-07, 01:43:05,VALID,1001.64,VALID,0,VALID,94.827,VALID,0,VALID,24.0734,VALID,49,VALID,0.167578,
2008-11-07, 01:44:05,VALID,1001.67,VALID,0,VALID,94.888,VALID,0,VALID,24.0947,VALID,55,VALID,0.299609,
2008-11-07, 01:45:05,VALID,1001.65,VALID,0,VALID,94.9109,VALID,0,VALID,24.0734,VALID,88,VALID,0.116016,
2008-11-07, 01:46:05,VALID,1001.68,VALID,0,VALID,94.9185,VALID,0,VALID,24.0752,VALID,88,VALID,0.476172,
2008-11-07, 01:47:05,VALID,1001.67,VALID,0,VALID,94.9567,VALID,0,VALID,24.0345,VALID,88,VALID,0.00859375,
2008-11-07, 01:48:05,VALID,1001.64,VALID,0,VALID,94.9948,VALID,0,VALID,24.0539,VALID,88,VALID,0.223438,
2008-11-07, 01:49:05,VALID,1001.64,VALID,0,VALID,95.033,VALID,0,VALID,24.0363,VALID,88,VALID,0.105078,
2008-11-07, 01:50:05,VALID,1001.62,VALID,0,VALID,95.1169,VALID,0,VALID,24.0539,VALID,88,VALID,0.00195313,
2008-11-07, 01:51:05,VALID,1001.62,VALID,0,VALID,95.1855,VALID,0,VALID,24.0947,VALID,88,VALID,0.225781,
2008-11-07, 01:52:05,VALID,1001.66,VALID,0,VALID,95.2008,VALID,0,VALID,24.0947,VALID,83,VALID,0.411719,
2008-11-07, 01:53:05,VALID,1001.63,VALID,0,VALID,95.1169,VALID,0,VALID,24.0947,VALID,83,VALID,0.373828,
2008-11-07, 01:54:05,VALID,1001.66,VALID,0,VALID,95.1093,VALID,0,VALID,24.0539,VALID,83,VALID,0,
2008-11-07, 01:55:05,VALID,1001.67,VALID,0,VALID,95.155,VALID,0.100563,VALID,24.0734,VALID,83,VALID,0,
2008-11-07, 01:56:05,VALID,1001.68,VALID,0,VALID,95.1245,VALID,0,VALID,24.0539,VALID,83,VALID,0,
2008-11-07, 01:57:05,VALID,1001.69,VALID,0,VALID,95.1321,VALID,0,VALID,24.0345,VALID,83,VALID,0,
2008-11-07, 01:58:05,VALID,1001.7,VALID,0,VALID,95.1855,VALID,0,VALID,24.015,VALID,83,VALID,0,
2008-11-07, 01:59:05,VALID,1001.67,VALID,0,VALID,95.2313,VALID,0,VALID,24.0539,VALID,83,VALID,0,
2008-11-07, 02:00:05,VALID,1001.64,VALID,0,VALID,95.2695,VALID,0,VALID,24.0539,VALID,83,VALID,0,
2008-11-07, 02:01:05,VALID,1001.65,VALID,0,VALID,95.2237,VALID,0,VALID,24.0539,VALID,83,VALID,0,
2008-11-07, 02:02:05,VALID,1001.64,VALID,0,VALID,95.2923,VALID,0,VALID,24.0539,VALID,83,VALID,0,
2008-11-07, 02:03:05,VALID,1001.64,VALID,0,VALID,95.3,VALID,0.100563,VALID,24.0929,VALID,83,VALID,0,
2008-11-07, 02:04:05,VALID,1001.61,VALID,0,VALID,95.2466,VALID,0.100563,VALID,24.0734,VALID,78,VALID,0,
2008-11-07, 02:05:05,VALID,1001.61,VALID,0,VALID,95.2542,VALID,0,VALID,24.0539,VALID,73,VALID,0,
2008-11-07, 02:06:05,VALID,1001.62,VALID,0,VALID,95.361,VALID,0,VALID,24.0539,VALID,69,VALID,0,
2008-11-07, 02:07:05,VALID,1001.64,VALID,0,VALID,95.3381,VALID,0,VALID,24.0734,VALID,65,VALID,0,
2008-11-07, 02:08:05,VALID,1001.61,VALID,0,VALID,95.361,VALID,0,VALID,24.0345,VALID,36,VALID,0.0488281,
2008-11-07, 02:09:05,VALID,1001.59,VALID,0,VALID,95.4373,VALID,0,VALID,24.0734,VALID,350,VALID,0.0183594,
2008-11-07, 02:10:05,VALID,1001.57,VALID,0,VALID,95.4678,VALID,0,VALID,24.0929,VALID,350,VALID,0.429688,
2008-11-07, 02:11:05,VALID,1001.55,VALID,0,VALID,95.4907,VALID,0,VALID,24.1105,VALID,350,VALID,0.591016,
2008-11-07, 02:12:05,VALID,1001.47,VALID,0,VALID,95.4754,VALID,0.100563,VALID,24.1318,VALID,350,VALID,0.123438,
2008-11-07, 02:13:05,VALID,1001.39,VALID,0,VALID,95.4754,VALID,0.100563,VALID,24.1105,VALID,350,VALID,0.672266,
2008-11-07, 02:14:05,VALID,1001.34,VALID,0,VALID,95.4449,VALID,0,VALID,24.1123,VALID,352,VALID,0.403125,
2008-11-07, 02:15:05,VALID,1001.3,VALID,0,VALID,95.4068,VALID,0,VALID,24.0929,VALID,351,VALID,0.532031,
2008-11-07, 02:16:05,VALID,1001.22,VALID,0,VALID,95.4373,VALID,0,VALID,24.0521,VALID,331,VALID,0.517578,
2008-11-07, 02:17:05,VALID,1001.21,VALID,0,VALID,95.4373,VALID,0,VALID,24.0539,VALID,343,VALID,0.632422,
2008-11-07, 02:18:05,VALID,1001.16,VALID,0,VALID,95.4983,VALID,0,VALID,24.0734,VALID,350,VALID,0.427734,
2008-11-07, 02:19:05,VALID,1001.18,VALID,0,VALID,95.5136,VALID,0.100563,VALID,24.0716,VALID,360,VALID,0.603125,
2008-11-07, 02:20:05,VALID,1001.13,VALID,0,VALID,95.5441,VALID,0,VALID,24.1123,VALID,31,VALID,1.20664,
2008-11-07, 02:21:05,VALID,1001.08,VALID,0,VALID,95.8035,VALID,0,VALID,24.3265,VALID,15,VALID,0.955469,
2008-11-07, 02:22:05,VALID,1001.04,VALID,0,VALID,95.7882,VALID,0,VALID,24.3441,VALID,341,VALID,0.951563,
2008-11-07, 02:23:05,VALID,1001.01,VALID,0,VALID,95.7653,VALID,0,VALID,24.4433,VALID,4,VALID,0.958203,
2008-11-07, 02:24:05,VALID,1001,VALID,0,VALID,95.8111,VALID,0,VALID,24.638,VALID,19,VALID,1.39883,
2008-11-07, 02:25:05,VALID,1001.05,VALID,0,VALID,95.7501,VALID,0,VALID,24.7335,VALID,22,VALID,0.412109,
2008-11-07, 02:26:05,VALID,1001.07,VALID,0,VALID,95.5594,VALID,0,VALID,24.8308,VALID,32,VALID,0.902734,
2008-11-07, 02:27:05,VALID,1001.06,VALID,0,VALID,95.422,VALID,0,VALID,24.9495,VALID,36,VALID,0.722266,
2008-11-07, 02:28:05,VALID,1001.05,VALID,0,VALID,95.155,VALID,0,VALID,25.0274,VALID,16,VALID,1.36641,
2008-11-07, 02:29:05,VALID,1001.04,VALID,0,VALID,94.8804,VALID,0.100563,VALID,25.1229,VALID,43,VALID,0.599219,
2008-11-07, 02:30:05,VALID,1001.05,VALID,0,VALID,94.6973,VALID,0,VALID,25.2221,VALID,41,VALID,0.0808594,
2008-11-07, 02:31:05,VALID,1001.07,VALID,0,VALID,94.5752,VALID,0,VALID,25.2221,VALID,41,VALID,0.11875,
2008-11-07, 02:32:05,VALID,1001.09,VALID,0,VALID,94.4684,VALID,0,VALID,25.1832,VALID,41,VALID,0.304297,
2008-11-07, 02:33:05,VALID,1001.12,VALID,0,VALID,94.4227,VALID,0,VALID,25.1229,VALID,41,VALID,0.267969,
2008-11-07, 02:34:05,VALID,1001.11,VALID,0,VALID,94.3998,VALID,0,VALID,25.1053,VALID,41,VALID,0.028125,
2008-11-07, 02:35:05,VALID,1001.15,VALID,0,VALID,94.4303,VALID,0,VALID,25.0644,VALID,41,VALID,0.337891,
2008-11-07, 02:36:05,VALID,1001.16,VALID,0,VALID,94.4074,VALID,0,VALID,25.0469,VALID,41,VALID,0.36875,
2008-11-07, 02:37:05,VALID,1001.18,VALID,0,VALID,94.4837,VALID,0,VALID,24.9885,VALID,41,VALID,0.0296875,
2008-11-07, 02:38:05,VALID,1001.14,VALID,0,VALID,94.5371,VALID,0,VALID,24.9476,VALID,41,VALID,0.248047,
2008-11-07, 02:39:05,VALID,1001.16,VALID,0,VALID,94.6134,VALID,0,VALID,24.9514,VALID,41,VALID,0.00195313,
2008-11-07, 02:40:05,VALID,1001.21,VALID,0,VALID,94.6515,VALID,0,VALID,24.93,VALID,41,VALID,0.00234375,
2008-11-07, 02:41:05,VALID,1001.27,VALID,0,VALID,94.7049,VALID,0,VALID,24.9106,VALID,41,VALID,0.367969,
2008-11-07, 02:42:05,VALID,1001.36,VALID,0,VALID,94.7278,VALID,0,VALID,24.8911,VALID,126,VALID,0.987891,
2008-11-07, 02:43:05,VALID,1001.4,VALID,0,VALID,94.8346,VALID,0,VALID,24.8911,VALID,134,VALID,0.877734,
2008-11-07, 02:44:05,VALID,1001.42,VALID,0.5,VALID,94.8728,VALID,0,VALID,24.8911,VALID,128,VALID,0.6125,
2008-11-07, 02:45:05,VALID,1001.44,VALID,0,VALID,94.9262,VALID,0,VALID,24.9125,VALID,127,VALID,0.747656,
2008-11-07, 02:46:05,VALID,1001.54,VALID,0,VALID,94.9719,VALID,0,VALID,24.9106,VALID,125,VALID,1.31016,
2008-11-07, 02:47:05,VALID,1001.54,VALID,1,VALID,94.9948,VALID,0,VALID,24.8892,VALID,117,VALID,1.28711,
2008-11-07, 02:48:05,VALID,1001.51,VALID,0.5,VALID,95.0177,VALID,0,VALID,24.9106,VALID,108,VALID,1.13398,
2008-11-07, 02:49:05,VALID,1001.5,VALID,0,VALID,94.8728,VALID,0,VALID,24.8522,VALID,91,VALID,1.08008,
2008-11-07, 02:50:05,VALID,1001.49,VALID,0.5,VALID,94.5447,VALID,0,VALID,24.7548,VALID,135,VALID,2.84805,
2008-11-07, 02:51:05,VALID,1001.42,VALID,0.5,VALID,94.0412,VALID,0,VALID,24.599,VALID,104,VALID,2.17891,
2008-11-07, 02:52:05,VALID,1001.37,VALID,0.5,VALID,92.9198,VALID,0,VALID,24.3459,VALID,103,VALID,2.05938,
2008-11-07, 02:53:05,VALID,1001.31,VALID,0.5,VALID,92.7977,VALID,0,VALID,24.2097,VALID,85,VALID,1.86719,
2008-11-07, 02:54:05,VALID,1001.4,VALID,0.5,VALID,93.2936,VALID,0,VALID,24.1123,VALID,53,VALID,1.24336,
2008-11-07, 02:55:05,VALID,1001.4,VALID,0,VALID,93.4767,VALID,0,VALID,24.015,VALID,13,VALID,1.8625,
2008-11-07, 02:56:05,VALID,1001.28,VALID,0.5,VALID,93.7208,VALID,0,VALID,23.9371,VALID,350,VALID,1.47891,
2008-11-07, 02:57:05,VALID,1001.29,VALID,0.5,VALID,94.0794,VALID,0,VALID,23.8982,VALID,23,VALID,1.50859,
2008-11-07, 02:58:05,VALID,1001.24,VALID,0.5,VALID,94.293,VALID,0,VALID,23.8593,VALID,13,VALID,1.94961,
2008-11-07, 02:59:05,VALID,1001.19,VALID,0.5,VALID,94.4837,VALID,0,VALID,23.8611,VALID,10,VALID,1.45781,
2008-11-07, 03:00:05,VALID,1001.13,VALID,0,VALID,94.6668,VALID,0,VALID,23.8009,VALID,27,VALID,2.48555,
2008-11-07, 03:01:05,VALID,1001.1,VALID,0,VALID,94.7583,VALID,0,VALID,23.8221,VALID,348,VALID,1.65234,
2008-11-07, 03:02:05,VALID,1000.98,VALID,0,VALID,94.7278,VALID,0,VALID,23.8416,VALID,8,VALID,1.31797,
2008-11-07, 03:03:05,VALID,1001,VALID,0,VALID,94.7736,VALID,0,VALID,23.8009,VALID,24,VALID,0.216406,
2008-11-07, 03:04:05,VALID,1001.03,VALID,0,VALID,94.7736,VALID,0,VALID,23.8221,VALID,33,VALID,0.473828,
2008-11-07, 03:05:05,VALID,1001.03,VALID,0,VALID,94.8956,VALID,0,VALID,23.8009,VALID,38,VALID,0.608984,
2008-11-07, 03:06:05,VALID,1001.08,VALID,0,VALID,94.949,VALID,0,VALID,23.8009,VALID,348,VALID,0.739062,
2008-11-07, 03:07:05,VALID,1001.07,VALID,0,VALID,94.9719,VALID,0,VALID,23.7814,VALID,294,VALID,0.579297,
2008-11-07, 03:08:04,VALID,1001.06,VALID,0,VALID,94.9719,VALID,0,VALID,23.7619,VALID,353,VALID,0.430078,
2008-11-07, 03:09:04,VALID,1001.07,VALID,0,VALID,95.0406,VALID,0,VALID,23.7814,VALID,327,VALID,0.606641,
2008-11-07, 03:10:04,VALID,1001.14,VALID,0,VALID,95.0864,VALID,0,VALID,23.7814,VALID,301,VALID,0.523828,
2008-11-07, 03:11:04,VALID,1001.12,VALID,0,VALID,95.1321,VALID,0,VALID,23.7814,VALID,280,VALID,0.0113281,
2008-11-07, 03:12:04,VALID,1001.18,VALID,0,VALID,95.1474,VALID,0,VALID,23.7814,VALID,239,VALID,0.4375,
2008-11-07, 03:13:04,VALID,1001.24,VALID,0,VALID,95.1398,VALID,0,VALID,23.7425,VALID,189,VALID,0.775781,
2008-11-07, 03:14:04,VALID,1001.32,VALID,0,VALID,95.1855,VALID,0,VALID,23.7425,VALID,178,VALID,0.791406,
2008-11-07, 03:15:04,VALID,1001.35,VALID,0,VALID,95.2313,VALID,0,VALID,23.7035,VALID,178,VALID,0.333594,
2008-11-07, 03:16:04,VALID,1001.4,VALID,0,VALID,95.3,VALID,0,VALID,23.7035,VALID,170,VALID,0.725781,
2008-11-07, 03:17:04,VALID,1001.39,VALID,0,VALID,95.3076,VALID,0,VALID,23.7035,VALID,168,VALID,0.431641,
2008-11-07, 03:18:04,VALID,1001.4,VALID,0,VALID,95.3763,VALID,0,VALID,23.6841,VALID,168,VALID,0.0765625,
2008-11-07, 03:19:04,VALID,1001.4,VALID,0,VALID,95.4144,VALID,0,VALID,23.7035,VALID,168,VALID,0.255859,
2008-11-07, 03:20:04,VALID,1001.38,VALID,0,VALID,95.4373,VALID,0,VALID,23.7035,VALID,168,VALID,0.155469,
2008-11-07, 03:21:04,VALID,1001.32,VALID,0,VALID,95.4526,VALID,0,VALID,23.6841,VALID,110,VALID,0.282031,
2008-11-07, 03:22:04,VALID,1001.25,VALID,0,VALID,95.4831,VALID,0,VALID,23.6841,VALID,110,VALID,0.392188,
2008-11-07, 03:23:04,VALID,1001.17,VALID,0,VALID,95.5517,VALID,0,VALID,23.6841,VALID,55,VALID,0.48125,
2008-11-07, 03:24:04,VALID,1001.18,VALID,0,VALID,95.5517,VALID,0,VALID,23.6841,VALID,40,VALID,0.673437,
2008-11-07, 03:25:04,VALID,1001.17,VALID,0,VALID,95.5365,VALID,0,VALID,23.6646,VALID,32,VALID,0.721094,
2008-11-07, 03:26:04,VALID,1001.16,VALID,0,VALID,95.5517,VALID,0,VALID,23.6452,VALID,32,VALID,0.533594,
2008-11-07, 03:27:04,VALID,1001.13,VALID,0,VALID,95.5975,VALID,0,VALID,23.6239,VALID,31,VALID,0.501562,
2008-11-07, 03:28:04,VALID,1001.15,VALID,0,VALID,95.6204,VALID,0,VALID,23.6257,VALID,31,VALID,0.440234,
2008-11-07, 03:29:04,VALID,1001.16,VALID,0,VALID,95.6738,VALID,0,VALID,23.6239,VALID,31,VALID,0.491406,
2008-11-07, 03:30:04,VALID,1001.11,VALID,0,VALID,95.6967,VALID,0,VALID,23.6646,VALID,355,VALID,0.741797,
2008-11-07, 03:31:04,VALID,1001.1,VALID,0,VALID,95.7424,VALID,0,VALID,23.6646,VALID,354,VALID,0.909766,
2008-11-07, 03:32:04,VALID,1001.12,VALID,0,VALID,95.7806,VALID,0,VALID,23.6823,VALID,1,VALID,0.997266,
2008-11-07, 03:33:04,VALID,1001.16,VALID,0,VALID,95.8416,VALID,0,VALID,23.7425,VALID,356,VALID,0.801953,
2008-11-07, 03:34:04,VALID,1001.19,VALID,0,VALID,95.9713,VALID,0.100563,VALID,23.8593,VALID,350,VALID,1.10742,
2008-11-07, 03:35:04,VALID,1001.26,VALID,0,VALID,95.9866,VALID,0,VALID,23.9566,VALID,15,VALID,1.25742,
2008-11-07, 03:36:04,VALID,1001.19,VALID,0,VALID,95.9255,VALID,0,VALID,23.9548,VALID,346,VALID,0.648828,
2008-11-07, 03:37:04,VALID,1001.22,VALID,0,VALID,95.7577,VALID,0,VALID,23.9566,VALID,4,VALID,0.941797,
2008-11-07, 03:38:04,VALID,1001.21,VALID,0,VALID,95.6204,VALID,0,VALID,23.9937,VALID,348,VALID,0.994531,
2008-11-07, 03:39:04,VALID,1001.23,VALID,0,VALID,95.628,VALID,0.100563,VALID,24.091,VALID,47,VALID,0.783984,
2008-11-07, 03:40:04,VALID,1001.25,VALID,0,VALID,95.4754,VALID,0.100563,VALID,24.13,VALID,83,VALID,0.828125,
2008-11-07, 03:41:04,VALID,1001.22,VALID,0,VALID,95.4678,VALID,0,VALID,24.1689,VALID,67,VALID,0.798437,
2008-11-07, 03:42:04,VALID,1001.23,VALID,0,VALID,95.3915,VALID,0.100563,VALID,24.2097,VALID,64,VALID,0.326172,
2008-11-07, 03:43:04,VALID,1001.25,VALID,0,VALID,95.3457,VALID,0,VALID,24.1884,VALID,58,VALID,0.390234,
2008-11-07, 03:44:04,VALID,1001.28,VALID,0,VALID,95.3381,VALID,0,VALID,24.2291,VALID,61,VALID,0.322656,
2008-11-07, 03:45:04,VALID,1001.32,VALID,0,VALID,95.2923,VALID,0,VALID,24.2291,VALID,21,VALID,0.790625,